Alsace — PB4786 — position and weather

sailwx.info

Track history (hours):
 
Tides and Currents Weather Stations Pressure Air Temp Water Temp Dewpoint Dewpoint Depression Visibility Wind Speed Wind Dir Waves Ship Positions

Alsace

Last reported at 2014-Jul-30 22:21 UTC. Time now 2014-Jul-31 07:26 UTC.
Position N 49°23' E 008°30'.

Length 178 m.

Type: Ship. MMSI: 244660556.

Date/timePositionNaut miles runAvg speedWind from/ knotsBaromVisibWave heightAir tempDewpointWater temp
2014-Jul-30 22:21N 49°23' E 008°30'7 8.1
2014-Jul-30 21:32N 49°16' E 008°27'1010.1
2014-Jul-30 20:33N 49°07' E 008°22'1110.4
2014-Jul-30 19:32N 48°58' E 008°14'16 6.9
2014-Jul-30 17:10N 48°45' E 007°58'5 5.1
2014-Jul-30 16:14N 48°41' E 007°55'64 2.9
2014-Jul-29 18:31N 47°39' E 007°32'4 3.8
2014-Jul-29 17:32N 47°36' E 007°35'1 1.2
2014-Jul-29 16:23N 47°35' E 007°35'0 0.0
2014-Jul-29 15:28N 47°35' E 007°35'0 0.0
2014-Jul-29 14:32N 47°35' E 007°35'0 0.0
2014-Jul-29 13:28N 47°35' E 007°35'0 0.0
2014-Jul-29 12:33N 47°35' E 007°35'0 0.0
2014-Jul-29 11:32N 47°35' E 007°35'0 0.3
2014-Jul-29 10:33N 47°35' E 007°35'0 0.0
2014-Jul-29 09:33N 47°35' E 007°35'0 0.0
2014-Jul-29 08:33N 47°35' E 007°35'0 0.0
2014-Jul-29 07:33N 47°35' E 007°35'0 0.0
2014-Jul-29 06:33N 47°35' E 007°35'0 0.0
2014-Jul-29 05:33N 47°35' E 007°35'0 0.2
2014-Jul-29 04:30N 47°35' E 007°35'0 0.0
2014-Jul-29 03:33N 47°35' E 007°35'0 0.0
2014-Jul-29 02:31N 47°35' E 007°35'0 0.0
2014-Jul-29 01:32N 47°35' E 007°35'0 0.0
2014-Jul-29 00:32N 47°35' E 007°35'0 0.0
2014-Jul-28 23:33N 47°35' E 007°35'0 0.0
2014-Jul-28 22:33N 47°35' E 007°35'0 0.0
2014-Jul-28 21:33N 47°35' E 007°35'4 4.4
2014-Jul-28 20:33N 47°39' E 007°32'64 1.9
2014-Jul-27 10:33N 48°41' E 007°55'4 3.7
2014-Jul-27 09:33N 48°44' E 007°58'6 5.2
2014-Jul-27 08:27N 48°48' E 008°05'3 3.2
2014-Jul-27 07:33N 48°50' E 008°07'4 3.5
2014-Jul-27 06:31N 48°54' E 008°08'4 4.1
2014-Jul-27 05:32N 48°57' E 008°12'4 4.2
2014-Jul-27 04:33N 48°59' E 008°17'4 4.4
2014-Jul-27 03:33N 49°04' E 008°19'4 4.4
2014-Jul-27 02:33N 49°08' E 008°22'4 4.5
2014-Jul-27 01:33N 49°12' E 008°23'5 4.4
2014-Jul-27 00:32N 49°16' E 008°27'4 3.5
2014-Jul-26 23:30N 49°20' E 008°27'129 4.0
2014-Jul-25 15:12N 51°11' E 006°47'3 3.9
2014-Jul-25 14:33N 51°13' E 006°44'52 2.3
2014-Jul-24 15:31N 51°52' E 005°49'6 5.6
2014-Jul-24 14:32N 51°54' E 005°40'6 5.9
2014-Jul-24 13:33N 51°53' E 005°31'5 5.4
2014-Jul-24 12:33N 51°50' E 005°24'4 4.5
2014-Jul-24 11:33N 51°49' E 005°17'6 5.9
2014-Jul-24 10:33N 51°49' E 005°07'6 5.4
2014-Jul-24 09:32N 51°50' E 004°58'2 2.1
2014-Jul-24 08:33N 51°50' E 004°55'8 7.6
2014-Jul-24 07:34N 51°49' E 004°43'5 4.8
2014-Jul-24 06:33N 51°48' E 004°35'7 6.8
2014-Jul-24 05:33N 51°51' E 004°25'7 7.0
2014-Jul-24 04:33N 51°53' E 004°14'6 6.3
2014-Jul-24 03:33N 51°56' E 004°05'1 0.8
2014-Jul-24 02:32N 51°57' E 004°05'0 0.0
2014-Jul-24 01:34N 51°57' E 004°05'0 0.0
2014-Jul-24 00:33N 51°57' E 004°05'0 0.0
2014-Jul-23 23:33N 51°57' E 004°05'0 0.0
2014-Jul-23 22:33N 51°57' E 004°05'1 1.1
2014-Jul-23 21:33N 51°56' E 004°03'1 1.0
2014-Jul-23 20:33N 51°56' E 004°02'0 0.0
2014-Jul-23 19:34N 51°56' E 004°02'0 0.0
2014-Jul-23 18:28N 51°56' E 004°02'0 0.0
2014-Jul-23 17:32N 51°56' E 004°02'0 0.0
2014-Jul-23 16:22N 51°56' E 004°02'0 0.0
2014-Jul-23 15:34N 51°56' E 004°02'0 0.0
2014-Jul-23 14:34N 51°56' E 004°02'0 0.0
2014-Jul-23 13:33N 51°56' E 004°02'0 0.0
2014-Jul-23 12:34N 51°56' E 004°02'0 0.0
2014-Jul-23 11:34N 51°56' E 004°02'0 0.0
2014-Jul-23 10:33N 51°56' E 004°02'0 0.2
2014-Jul-23 09:33N 51°57' E 004°02'0 0.2
2014-Jul-23 08:33N 51°56' E 004°02'0 0.0
2014-Jul-23 07:33N 51°56' E 004°02'0 0.0
2014-Jul-23 06:33N 51°56' E 004°02'0 0.0
2014-Jul-23 05:33N 51°56' E 004°02'0 0.0
2014-Jul-23 04:33N 51°56' E 004°02'0 0.0
2014-Jul-23 03:33N 51°56' E 004°02'0 0.0
2014-Jul-23 02:33N 51°56' E 004°02'0 0.0
2014-Jul-23 01:33N 51°56' E 004°02'0 0.0
2014-Jul-23 00:34N 51°56' E 004°02'0 0.0
2014-Jul-22 23:33N 51°56' E 004°02'0 0.0
2014-Jul-22 22:34N 51°56' E 004°02'0 0.0
2014-Jul-22 21:34N 51°56' E 004°02'0 0.0
2014-Jul-22 20:33N 51°56' E 004°02'0 0.0
2014-Jul-22 19:34N 51°56' E 004°02'0 0.0
2014-Jul-22 18:32N 51°56' E 004°02'2 2.0
2014-Jul-22 17:34N 51°58' E 004°05'1 1.4
2014-Jul-22 16:33N 51°57' E 004°02'0 0.0
2014-Jul-22 15:34N 51°57' E 004°02'2 1.5
2014-Jul-22 14:34N 51°57' E 004°05'8 7.9
2014-Jul-22 13:34N 51°53' E 004°15'0 0.3
2014-Jul-22 12:32N 51°53' E 004°14'1 0.9
2014-Jul-22 11:34N 51°52' E 004°15'4 4.4
2014-Jul-22 10:33N 51°54' E 004°22'3 2.8
2014-Jul-22 09:34N 51°53' E 004°26'0 0.0
2014-Jul-22 08:33N 51°53' E 004°26'0 0.2
2014-Jul-22 07:33N 51°53' E 004°26'0 0.0
2014-Jul-22 06:33N 51°53' E 004°26'0 0.0
2014-Jul-22 05:34N 51°53' E 004°26'0 0.0
2014-Jul-22 04:33N 51°53' E 004°26'0 0.0
2014-Jul-22 03:34N 51°53' E 004°26'0 0.0
2014-Jul-22 02:34N 51°53' E 004°26'0 0.0
2014-Jul-22 01:33N 51°53' E 004°26'0 0.0
2014-Jul-22 00:33N 51°53' E 004°26'0 0.0
2014-Jul-21 23:33N 51°53' E 004°26'0 0.0
2014-Jul-21 22:33N 51°53' E 004°26'0 0.0
2014-Jul-21 21:33N 51°53' E 004°26'0 0.0
2014-Jul-21 20:33N 51°53' E 004°26'0 0.0
2014-Jul-21 20:18N 51°53' E 004°26'0 0.2
2014-Jul-21 19:33N 51°53' E 004°26'1 0.7
2014-Jul-21 18:34N 51°53' E 004°26'0 0.1
2014-Jul-21 17:33N 51°53' E 004°26'1 0.6
2014-Jul-21 16:33N 51°54' E 004°26'1 1.3
2014-Jul-21 15:34N 51°53' E 004°25'1 0.9
2014-Jul-21 14:33N 51°53' E 004°24'1 0.7
2014-Jul-21 13:33N 51°53' E 004°24'0 0.0
2014-Jul-21 12:33N 51°53' E 004°24'2 2.5
2014-Jul-21 11:34N 51°54' E 004°28'6 5.7
2014-Jul-21 10:33N 51°53' E 004°37'7 7.0
2014-Jul-21 09:30N 51°49' E 004°47'1010.2
2014-Jul-21 08:33N 51°49' E 005°03'1110.5
2014-Jul-21 07:33N 51°49' E 005°20'  
Track history (hours):
 
Tides and Currents Weather Stations Pressure Air Temp Water Temp Dewpoint Dewpoint Depression Visibility Wind Speed Wind Dir Waves Ship Positions

Alsace

Last reported at 2014-Jul-30 22:21 UTC. Time now 2014-Jul-31 07:26 UTC.
Position N 49°23' E 008°30'.

Length 178 m.

Type: Ship. MMSI: 244660556.

Date/timePositionNaut miles runAvg speedWind from/ knotsBaromVisibWave heightAir tempDewpointWater temp
2014-Jul-30 22:21N 49°23' E 008°30'7 8.1
2014-Jul-30 21:32N 49°16' E 008°27'1010.1
2014-Jul-30 20:33N 49°07' E 008°22'1110.4
2014-Jul-30 19:32N 48°58' E 008°14'16 6.9
2014-Jul-30 17:10N 48°45' E 007°58'5 5.1
2014-Jul-30 16:14N 48°41' E 007°55'64 2.9
2014-Jul-29 18:31N 47°39' E 007°32'4 3.8
2014-Jul-29 17:32N 47°36' E 007°35'1 1.2
2014-Jul-29 16:23N 47°35' E 007°35'0 0.0
2014-Jul-29 15:28N 47°35' E 007°35'0 0.0
2014-Jul-29 14:32N 47°35' E 007°35'0 0.0
2014-Jul-29 13:28N 47°35' E 007°35'0 0.0
2014-Jul-29 12:33N 47°35' E 007°35'0 0.0
2014-Jul-29 11:32N 47°35' E 007°35'0 0.3
2014-Jul-29 10:33N 47°35' E 007°35'0 0.0
2014-Jul-29 09:33N 47°35' E 007°35'0 0.0
2014-Jul-29 08:33N 47°35' E 007°35'0 0.0
2014-Jul-29 07:33N 47°35' E 007°35'0 0.0
2014-Jul-29 06:33N 47°35' E 007°35'0 0.0
2014-Jul-29 05:33N 47°35' E 007°35'0 0.2
2014-Jul-29 04:30N 47°35' E 007°35'0 0.0
2014-Jul-29 03:33N 47°35' E 007°35'0 0.0
2014-Jul-29 02:31N 47°35' E 007°35'0 0.0
2014-Jul-29 01:32N 47°35' E 007°35'0 0.0
2014-Jul-29 00:32N 47°35' E 007°35'0 0.0
2014-Jul-28 23:33N 47°35' E 007°35'0 0.0
2014-Jul-28 22:33N 47°35' E 007°35'0 0.0
2014-Jul-28 21:33N 47°35' E 007°35'4 4.4
2014-Jul-28 20:33N 47°39' E 007°32'64 1.9
2014-Jul-27 10:33N 48°41' E 007°55'4 3.7
2014-Jul-27 09:33N 48°44' E 007°58'6 5.2
2014-Jul-27 08:27N 48°48' E 008°05'3 3.2
2014-Jul-27 07:33N 48°50' E 008°07'4 3.5
2014-Jul-27 06:31N 48°54' E 008°08'4 4.1
2014-Jul-27 05:32N 48°57' E 008°12'4 4.2
2014-Jul-27 04:33N 48°59' E 008°17'4 4.4
2014-Jul-27 03:33N 49°04' E 008°19'4 4.4
2014-Jul-27 02:33N 49°08' E 008°22'4 4.5
2014-Jul-27 01:33N 49°12' E 008°23'5 4.4
2014-Jul-27 00:32N 49°16' E 008°27'4 3.5
2014-Jul-26 23:30N 49°20' E 008°27'129 4.0
2014-Jul-25 15:12N 51°11' E 006°47'3 3.9
2014-Jul-25 14:33N 51°13' E 006°44'52 2.3
2014-Jul-24 15:31N 51°52' E 005°49'6 5.6
2014-Jul-24 14:32N 51°54' E 005°40'6 5.9
2014-Jul-24 13:33N 51°53' E 005°31'5 5.4
2014-Jul-24 12:33N 51°50' E 005°24'4 4.5
2014-Jul-24 11:33N 51°49' E 005°17'6 5.9
2014-Jul-24 10:33N 51°49' E 005°07'6 5.4
2014-Jul-24 09:32N 51°50' E 004°58'2 2.1
2014-Jul-24 08:33N 51°50' E 004°55'8 7.6
2014-Jul-24 07:34N 51°49' E 004°43'5 4.8
2014-Jul-24 06:33N 51°48' E 004°35'7 6.8
2014-Jul-24 05:33N 51°51' E 004°25'7 7.0
2014-Jul-24 04:33N 51°53' E 004°14'6 6.3
2014-Jul-24 03:33N 51°56' E 004°05'1 0.8
2014-Jul-24 02:32N 51°57' E 004°05'0 0.0
2014-Jul-24 01:34N 51°57' E 004°05'0 0.0
2014-Jul-24 00:33N 51°57' E 004°05'0 0.0
2014-Jul-23 23:33N 51°57' E 004°05'0 0.0
2014-Jul-23 22:33N 51°57' E 004°05'1 1.1
2014-Jul-23 21:33N 51°56' E 004°03'1 1.0
2014-Jul-23 20:33N 51°56' E 004°02'0 0.0
2014-Jul-23 19:34N 51°56' E 004°02'0 0.0
2014-Jul-23 18:28N 51°56' E 004°02'0 0.0
2014-Jul-23 17:32N 51°56' E 004°02'0 0.0
2014-Jul-23 16:22N 51°56' E 004°02'0 0.0
2014-Jul-23 15:34N 51°56' E 004°02'0 0.0
2014-Jul-23 14:34N 51°56' E 004°02'0 0.0
2014-Jul-23 13:33N 51°56' E 004°02'0 0.0
2014-Jul-23 12:34N 51°56' E 004°02'0 0.0
2014-Jul-23 11:34N 51°56' E 004°02'0 0.0
2014-Jul-23 10:33N 51°56' E 004°02'0 0.2
2014-Jul-23 09:33N 51°57' E 004°02'0 0.2
2014-Jul-23 08:33N 51°56' E 004°02'0 0.0
2014-Jul-23 07:33N 51°56' E 004°02'0 0.0
2014-Jul-23 06:33N 51°56' E 004°02'0 0.0
2014-Jul-23 05:33N 51°56' E 004°02'0 0.0
2014-Jul-23 04:33N 51°56' E 004°02'0 0.0
2014-Jul-23 03:33N 51°56' E 004°02'0 0.0
2014-Jul-23 02:33N 51°56' E 004°02'0 0.0
2014-Jul-23 01:33N 51°56' E 004°02'0 0.0
2014-Jul-23 00:34N 51°56' E 004°02'0 0.0
2014-Jul-22 23:33N 51°56' E 004°02'0 0.0
2014-Jul-22 22:34N 51°56' E 004°02'0 0.0
2014-Jul-22 21:34N 51°56' E 004°02'0 0.0
2014-Jul-22 20:33N 51°56' E 004°02'0 0.0
2014-Jul-22 19:34N 51°56' E 004°02'0 0.0
2014-Jul-22 18:32N 51°56' E 004°02'2 2.0
2014-Jul-22 17:34N 51°58' E 004°05'1 1.4
2014-Jul-22 16:33N 51°57' E 004°02'0 0.0
2014-Jul-22 15:34N 51°57' E 004°02'2 1.5
2014-Jul-22 14:34N 51°57' E 004°05'8 7.9
2014-Jul-22 13:34N 51°53' E 004°15'0 0.3
2014-Jul-22 12:32N 51°53' E 004°14'1 0.9
2014-Jul-22 11:34N 51°52' E 004°15'4 4.4
2014-Jul-22 10:33N 51°54' E 004°22'3 2.8
2014-Jul-22 09:34N 51°53' E 004°26'0 0.0
2014-Jul-22 08:33N 51°53' E 004°26'0 0.2
2014-Jul-22 07:33N 51°53' E 004°26'0 0.0
2014-Jul-22 06:33N 51°53' E 004°26'0 0.0
2014-Jul-22 05:34N 51°53' E 004°26'0 0.0
2014-Jul-22 04:33N 51°53' E 004°26'0 0.0
2014-Jul-22 03:34N 51°53' E 004°26'0 0.0
2014-Jul-22 02:34N 51°53' E 004°26'0 0.0
2014-Jul-22 01:33N 51°53' E 004°26'0 0.0
2014-Jul-22 00:33N 51°53' E 004°26'0 0.0
2014-Jul-21 23:33N 51°53' E 004°26'0 0.0
2014-Jul-21 22:33N 51°53' E 004°26'0 0.0
2014-Jul-21 21:33N 51°53' E 004°26'0 0.0
2014-Jul-21 20:33N 51°53' E 004°26'0 0.0
2014-Jul-21 20:18N 51°53' E 004°26'0 0.2
2014-Jul-21 19:33N 51°53' E 004°26'1 0.7
2014-Jul-21 18:34N 51°53' E 004°26'0 0.1
2014-Jul-21 17:33N 51°53' E 004°26'1 0.6
2014-Jul-21 16:33N 51°54' E 004°26'1 1.3
2014-Jul-21 15:34N 51°53' E 004°25'1 0.9
2014-Jul-21 14:33N 51°53' E 004°24'1 0.7
2014-Jul-21 13:33N 51°53' E 004°24'0 0.0
2014-Jul-21 12:33N 51°53' E 004°24'2 2.5
2014-Jul-21 11:34N 51°54' E 004°28'6 5.7
2014-Jul-21 10:33N 51°53' E 004°37'7 7.0
2014-Jul-21 09:30N 51°49' E 004°47'1010.2
2014-Jul-21 08:33N 51°49' E 005°03'1110.5
2014-Jul-21 07:33N 51°49' E 005°20'  

Dump ship's entire track history